This demonstration page uses our WeatherBlox Daily Observations layout. Learn more.

Left ArrowRight Arrow

44.89941, -97.11507

Hourly Observations for February 24, 2021

Temp ( °F °C ) Dew Point ( °F °C ) Humidity (%) Winds ( mph kmh ) Pressure ( in mb ) Visibility ( mi km ) Precip ( " mm )
12:19 am 00:19 Mostly Cloudy 34 1.1 33 0.6 97 97 NW 15 24 29.78 1008 10 16 0.00 0.00
12:28 am 00:28 Cloudy 34 1.1 33 0.6 97 97 NW 13 20 29.78 1008 10 16 0.00 0.00
12:50 am 00:50 Cloudy with Mist and Fog 32 0 32 0 100 100 N 24 39 29.82 1010 2 3 0.00 0.00
12:53 am 00:53 Cloudy with Mist and Fog 32 0 31 -0.6 96 96 N 22 35 29.79 1009 1 2 0.00 0.00
12:55 am 00:55 Cloudy with Mist and Fog 32 0 31 -0.6 96 96 N 24 39 29.83 1010 1 1 0.00 0.00
1:04 am 01:04 Cloudy with Light Snow 32 0 32 0 100 100 N 18 30 29.84 1010 2 2 0.00 0.00
1:13 am 01:13 Windy with Snow Likely 31 -0.6 31 -0.6 100 100 N 21 33 29.85 1011 1 1 0.00 0.00
1:24 am 01:24 Windy with Snow Likely 31 -0.6 30 -1.1 96 96 N 24 39 29.86 1011 2 2 0.00 0.00
1:27 am 01:27 Windy with Snow Likely 31 -0.6 29 -1.7 92 92 N 26 43 29.86 1011 3 5 0.00 0.00
1:53 am 01:53 Cloudy 31 -0.6 28 -2.2 89 89 N 28 44 29.86 1011 10 16 0.00 0.00
2:53 am 02:53 Cloudy 29 -1.7 27 -2.8 92 92 N 24 39 29.92 1013 10 16 0.00 0.00
3:29 am 03:29 Partly Cloudy 26 -3.3 24 -4.4 92 92 N 10 17 29.99 1016 10 16 0.00 0.00
3:53 am 03:53 Clear 26 -3.3 24 -4.4 92 92 N 16 26 29.96 1015 10 16 0.00 0.00
4:14 am 04:14 Partly Cloudy 26 -3.3 24 -4.4 92 92 N 14 22 30.03 1017 10 16 0.00 0.00
4:23 am 04:23 Mostly Cloudy 25 -3.9 24 -4.4 96 96 NNW 18 30 30.05 1018 10 16 0.00 0.00
4:53 am 04:53 Mostly Cloudy 25 -3.9 23 -5 92 92 N 16 26 30.01 1016 10 16 0.00 0.00
5:53 am 05:53 Cloudy 25 -3.9 23 -5 92 92 N 16 26 30.06 1018 10 16 0.00 0.00
6:53 am 06:53 Cloudy 25 -3.9 23 -5 92 92 NW 15 24 30.10 1019 10 16 0.00 0.00
7:41 am 07:41 Cloudy 25 -3.9 22 -5.6 88 88 NNW 16 26 30.17 1022 10 16 0.00 0.00
7:53 am 07:53 Cloudy 25 -3.9 22 -5.6 88 88 NW 13 20 30.13 1020 10 16 0.00 0.00
8:10 am 08:10 Cloudy 25 -3.9 22 -5.6 88 88 NNW 12 19 30.18 1022 10 16 0.00 0.00
8:19 am 08:19 Cloudy 24 -4.4 22 -5.6 91 91 NNW 10 17 30.18 1022 10 16 0.00 0.00
8:30 am 08:30 Cloudy 24 -4.4 22 -5.6 91 91 NW 7 11 30.18 1022 10 16 0.00 0.00
8:53 am 08:53 Cloudy 24 -4.4 22 -5.6 91 91 NW 6 9 30.15 1021 10 16 0.00 0.00
9:53 am 09:53 Partly Cloudy 25 -3.9 22 -5.6 88 88 NW 8 13 30.16 1022 10 16 0.00 0.00
10:13 am 10:13 Mostly Cloudy 25 -3.9 22 -5.6 88 88 NW 8 13 30.22 1023 10 16 0.00 0.00
10:53 am 10:53 Cloudy 26 -3.3 24 -4.4 92 92 W 13 20 30.19 1022 10 16 0.00 0.00
11:53 am 11:53 Cloudy 29 -1.7 26 -3.3 89 89 NW 9 15 30.19 1023 10 16 0.00 0.00
12:53 pm 12:53 Mostly Cloudy 32 0 28 -2.2 85 85 WNW 13 20 30.19 1022 10 16 0.00 0.00
1:18 pm 13:18 Cloudy 31 -0.6 27 -2.8 85 85 WNW 12 19 30.21 1023 10 16 0.00 0.00
1:53 pm 13:53 Cloudy 30 -1.1 25 -3.9 82 82 WNW 10 17 30.19 1023 10 16 0.00 0.00
2:53 pm 14:53 Cloudy 33 0.6 26 -3.3 75 75 WNW 8 13 30.19 1022 10 16 0.00 0.00
3:53 pm 15:53 Mostly Cloudy 34 1.1 27 -2.8 76 76 W 5 7 30.20 1023 10 16 0.00 0.00
4:03 pm 16:03 Mostly Sunny 34 1.1 27 -2.8 76 76 WSW 7 11 30.21 1023 10 16 0.00 0.00
4:53 pm 16:53 Partly Cloudy 34 1.1 28 -2.2 79 79 SW 8 13 30.21 1023 10 16 0.00 0.00
5:53 pm 17:53 Mostly Cloudy 32 0 27 -2.8 82 82 S 3 6 30.22 1023 10 16 0.00 0.00
6:53 pm 18:53 Mostly Cloudy 30 -1.1 27 -2.8 88 88 Calm 30.25 1024 10 16 0.00 0.00
7:53 pm 19:53 Mostly Cloudy 31 -0.6 28 -2.2 89 89 WSW 7 11 30.27 1025 10 16 0.00 0.00
8:53 pm 20:53 Mostly Cloudy 30 -1.1 29 -1.7 96 96 W 8 13 30.29 1026 10 16 0.00 0.00
9:53 pm 21:53 Clear 30 -1.1 28 -2.2 92 92 W 8 13 30.31 1027 10 16 0.00 0.00
10:53 pm 22:53 Clear 27 -2.8 25 -3.9 92 92 WNW 9 15 30.33 1027 10 16 0.00 0.00
11:20 pm 23:20 Partly Cloudy 29 -1.7 27 -2.8 92 92 NW 15 24 30.35 1028 9 14 0.00 0.00
11:29 pm 23:29 Mostly Cloudy 29 -1.7 27 -2.8 92 92 NNW 15 24 30.36 1028 7 11 0.00 0.00
11:53 pm 23:53 Cloudy 29 -1.7 27 -2.8 92 92 NNW 15 24 30.34 1027 8 13 0.00 0.00

Powered by AerisWeather